contact:dominique.lefevre@mio.osupytheas.fr, maurice.libes@osupytheas.fr, didier.mallarino@osupytheas.fr
Project:EMSO http://www.emso-fr.org/EMSO-France
Depth: 2436.0 m
Title:EMSO Ligure Ouest : Data MII capteur CSTAR
DateTime,Latitude,Longitude,Instrument_Serial,Reference_Counts,Signal_Counts,Corrected_Signal_raw_counts,Calculated_Beam_c_inverse_meters,Internal_thermistor_counts
DateTime,Latitude,Longitude,Instrument_Serial,Reference_Counts,Signal_Counts,Corrected_Signal_raw_counts,Calculated_Beam_c_inverse_meters,Internal_thermistor_counts
2022-07-30T00:01:02,42.805,6.029,CST-1368DR,4637,5003,11492,01.227,551
2022-07-30T00:04:03,42.805,6.029,CST-1368DR,4637,5004,11493,01.226,551
2022-07-30T00:07:05,42.805,6.029,CST-1368DR,4637,5001,11488,01.228,551
2022-07-30T00:10:07,42.805,6.029,CST-1368DR,4637,4999,11482,01.230,551
2022-07-30T00:13:08,42.805,6.029,CST-1368DR,4637,4996,11475,01.233,551
2022-07-30T00:16:10,42.805,6.029,CST-1368DR,4637,4999,11482,01.230,551
2022-07-30T00:19:11,42.805,6.029,CST-1368DR,4637,4998,11480,01.231,551
2022-07-30T00:22:13,42.805,6.029,CST-1368DR,4637,5003,11492,01.227,551
2022-07-30T00:25:14,42.805,6.029,CST-1368DR,4637,5009,11506,01.222,551
2022-07-30T00:28:16,42.805,6.029,CST-1368DR,4637,5006,11497,01.225,551
2022-07-30T00:31:18,42.805,6.029,CST-1368DR,4637,4997,11477,01.232,551
2022-07-30T00:34:19,42.805,6.029,CST-1368DR,4637,5000,11485,01.229,551
2022-07-30T00:37:21,42.805,6.029,CST-1368DR,4637,5000,11484,01.229,551
2022-07-30T00:40:22,42.805,6.029,CST-1368DR,4637,4998,11479,01.231,551
2022-07-30T00:43:24,42.805,6.029,CST-1368DR,4637,5005,11496,01.225,551
2022-07-30T00:46:26,42.805,6.029,CST-1368DR,4637,4998,11481,01.230,551
2022-07-30T00:49:27,42.805,6.029,CST-1368DR,4637,5002,11489,01.228,551
2022-07-30T00:52:29,42.805,6.029,CST-1368DR,4637,5004,11494,01.226,551
2022-07-30T00:55:30,42.805,6.029,CST-1368DR,4637,5000,11484,01.229,551
2022-07-30T00:58:32,42.805,6.029,CST-1368DR,4637,5002,11489,01.228,551
2022-07-30T01:01:33,42.805,6.029,CST-1368DR,4637,5017,11523,01.216,550
2022-07-30T01:04:35,42.805,6.029,CST-1368DR,4637,5013,11515,01.219,551
2022-07-30T01:07:37,42.805,6.029,CST-1368DR,4637,5009,11505,01.222,551
2022-07-30T01:10:38,42.805,6.029,CST-1368DR,4637,5009,11505,01.222,551
2022-07-30T01:13:40,42.805,6.029,CST-1368DR,4637,5009,11506,01.222,551
2022-07-30T01:16:41,42.805,6.029,CST-1368DR,4637,5004,11493,01.226,551
2022-07-30T01:19:43,42.805,6.029,CST-1368DR,4637,5003,11492,01.227,551
2022-07-30T01:22:44,42.805,6.029,CST-1368DR,4637,5002,11490,01.227,551
2022-07-30T01:25:46,42.805,6.029,CST-1368DR,4637,5004,11495,01.226,551
2022-07-30T01:28:48,42.805,6.029,CST-1368DR,4637,5007,11500,01.224,551
2022-07-30T01:31:49,42.805,6.029,CST-1368DR,4637,5001,11486,01.229,551
2022-07-30T01:34:51,42.805,6.029,CST-1368DR,4637,4999,11482,01.230,551
2022-07-30T01:37:52,42.805,6.029,CST-1368DR,4637,5000,11485,01.229,551
2022-07-30T01:40:54,42.805,6.029,CST-1368DR,4637,5003,11492,01.227,551
2022-07-30T01:43:56,42.805,6.029,CST-1368DR,4637,5002,11489,01.228,551
2022-07-30T01:46:57,42.805,6.029,CST-1368DR,4637,5001,11488,01.228,551
2022-07-30T01:49:59,42.805,6.029,CST-1368DR,4637,4999,11482,01.230,551
2022-07-30T01:53:00,42.805,6.029,CST-1368DR,4637,4999,11482,01.230,551
2022-07-30T01:56:02,42.805,6.029,CST-1368DR,4637,4998,11480,01.231,551
2022-07-30T01:59:03,42.805,6.029,CST-1368DR,4636,5003,11494,01.226,551
2022-07-30T02:02:05,42.805,6.029,CST-1368DR,4637,4999,11482,01.230,551
2022-07-30T02:05:07,42.805,6.029,CST-1368DR,4637,5002,11490,01.227,551
2022-07-30T02:08:08,42.805,6.029,CST-1368DR,4637,5001,11488,01.228,551
2022-07-30T02:11:10,42.805,6.029,CST-1368DR,4637,5003,11492,01.227,551
2022-07-30T02:14:11,42.805,6.029,CST-1368DR,4637,5000,11484,01.229,551
2022-07-30T02:17:13,42.805,6.029,CST-1368DR,4637,5006,11497,01.225,551
2022-07-30T02:20:14,42.805,6.029,CST-1368DR,4637,5000,11485,01.229,551
2022-07-30T02:23:16,42.805,6.029,CST-1368DR,4637,5004,11494,01.226,551
2022-07-30T02:26:18,42.805,6.029,CST-1368DR,4637,5003,11491,01.227,551
2022-07-30T02:29:19,42.805,6.029,CST-1368DR,4637,5001,11486,01.229,551
2022-07-30T02:32:21,42.805,6.029,CST-1368DR,4637,5001,11488,01.228,551
2022-07-30T02:35:22,42.805,6.029,CST-1368DR,4637,4999,11482,01.230,551
2022-07-30T02:38:24,42.805,6.029,CST-1368DR,4637,4999,11483,01.230,551
2022-07-30T02:41:26,42.805,6.029,CST-1368DR,4637,5001,11486,01.229,551
2022-07-30T02:44:27,42.805,6.029,CST-1368DR,4637,5009,11506,01.222,551
2022-07-30T02:47:29,42.805,6.029,CST-1368DR,4637,5003,11492,01.227,551
2022-07-30T02:50:30,42.805,6.029,CST-1368DR,4637,5003,11492,01.227,551
2022-07-30T02:53:32,42.805,6.029,CST-1368DR,4637,5005,11497,01.225,551
2022-07-30T02:56:33,42.805,6.029,CST-1368DR,4636,5007,11504,01.222,551
2022-07-30T02:59:35,42.805,6.029,CST-1368DR,4637,5007,11500,01.224,551
2022-07-30T03:02:37,42.805,6.029,CST-1368DR,4636,5009,11507,01.221,551
2022-07-30T03:05:38,42.805,6.029,CST-1368DR,4637,5007,11501,01.223,551
2022-07-30T03:08:40,42.805,6.029,CST-1368DR,4636,5008,11506,01.222,551
2022-07-30T03:11:41,42.805,6.029,CST-1368DR,4637,5010,11508,01.221,551
2022-07-30T03:14:43,42.805,6.029,CST-1368DR,4636,5009,11507,01.221,551
2022-07-30T03:17:44,42.805,6.029,CST-1368DR,4636,5014,11518,01.218,551
2022-07-30T03:20:46,42.805,6.029,CST-1368DR,4637,5012,11512,01.220,551
2022-07-30T03:23:48,42.805,6.029,CST-1368DR,4636,5005,11499,01.224,551
2022-07-30T03:26:49,42.805,6.029,CST-1368DR,4637,5007,11500,01.224,551
2022-07-30T03:29:51,42.805,6.029,CST-1368DR,4637,5009,11504,01.222,551
2022-07-30T03:32:52,42.805,6.029,CST-1368DR,4637,5003,11492,01.227,551
2022-07-30T03:35:54,42.805,6.029,CST-1368DR,4636,5006,11500,01.224,551
2022-07-30T03:38:56,42.805,6.029,CST-1368DR,4637,5007,11501,01.223,551
2022-07-30T03:41:57,42.805,6.029,CST-1368DR,4637,5007,11500,01.224,551
2022-07-30T03:44:59,42.805,6.029,CST-1368DR,4637,5001,11486,01.229,551
2022-07-30T03:48:00,42.805,6.029,CST-1368DR,4636,5009,11508,01.221,551
2022-07-30T03:51:02,42.805,6.029,CST-1368DR,4637,5004,11494,01.226,551
2022-07-30T03:54:03,42.805,6.029,CST-1368DR,4636,5007,11503,01.223,551
2022-07-30T03:57:05,42.805,6.029,CST-1368DR,4637,5008,11502,01.223,551
2022-07-30T04:00:07,42.805,6.029,CST-1368DR,4637,5003,11491,01.227,551
2022-07-30T04:03:08,42.805,6.029,CST-1368DR,4637,5011,11509,01.221,551
2022-07-30T04:06:10,42.805,6.029,CST-1368DR,4637,5011,11509,01.221,551
2022-07-30T04:09:11,42.805,6.029,CST-1368DR,4636,5006,11500,01.224,551
2022-07-30T04:12:13,42.805,6.029,CST-1368DR,4637,5009,11504,01.222,551
2022-07-30T04:15:14,42.805,6.029,CST-1368DR,4636,5007,11502,01.223,551
2022-07-30T04:18:16,42.805,6.029,CST-1368DR,4637,5011,11509,01.221,551
2022-07-30T04:21:18,42.805,6.029,CST-1368DR,4636,5006,11501,01.223,551
2022-07-30T04:24:19,42.805,6.029,CST-1368DR,4636,5003,11493,01.226,551
2022-07-30T04:27:21,42.805,6.029,CST-1368DR,4636,4999,11484,01.229,551
2022-07-30T04:30:22,42.805,6.029,CST-1368DR,4636,5006,11500,01.224,551
2022-07-30T04:33:24,42.805,6.029,CST-1368DR,4636,5006,11500,01.224,551
2022-07-30T04:36:26,42.805,6.029,CST-1368DR,4636,5006,11501,01.223,551
2022-07-30T04:39:27,42.805,6.029,CST-1368DR,4637,5007,11500,01.224,551
2022-07-30T04:42:29,42.805,6.029,CST-1368DR,4637,5015,11519,01.217,551
2022-07-30T04:45:30,42.805,6.029,CST-1368DR,4637,5007,11501,01.223,551
2022-07-30T04:48:32,42.805,6.029,CST-1368DR,4637,5009,11504,01.222,551
2022-07-30T04:51:33,42.805,6.029,CST-1368DR,4637,5014,11517,01.218,551
2022-07-30T04:54:35,42.805,6.029,CST-1368DR,4637,5008,11504,01.222,551
2022-07-30T04:57:37,42.805,6.029,CST-1368DR,4637,5007,11501,01.223,551
2022-07-30T05:00:38,42.805,6.029,CST-1368DR,4637,5007,11500,01.224,551
2022-07-30T05:03:40,42.805,6.029,CST-1368DR,4636,5007,11503,01.223,551
2022-07-30T05:06:41,42.805,6.029,CST-1368DR,4636,5006,11501,01.223,551
2022-07-30T05:09:43,42.805,6.029,CST-1368DR,4636,5003,11495,01.226,551
2022-07-30T05:12:44,42.805,6.029,CST-1368DR,4636,5004,11495,01.226,551
2022-07-30T05:15:46,42.805,6.029,CST-1368DR,4636,5010,11510,01.220,551
2022-07-30T05:18:48,42.805,6.029,CST-1368DR,4636,5012,11515,01.219,551
2022-07-30T05:21:49,42.805,6.029,CST-1368DR,4636,5006,11501,01.223,551
2022-07-30T05:24:51,42.805,6.029,CST-1368DR,4636,5007,11502,01.223,551
2022-07-30T05:27:52,42.805,6.029,CST-1368DR,4636,5008,11506,01.222,551
2022-07-30T05:30:54,42.805,6.029,CST-1368DR,4636,5009,11507,01.221,551
2022-07-30T05:33:56,42.805,6.029,CST-1368DR,4636,5006,11500,01.224,551
2022-07-30T05:36:57,42.805,6.029,CST-1368DR,4636,5005,11499,01.224,551
2022-07-30T05:39:59,42.805,6.029,CST-1368DR,4636,5000,11486,01.229,551
2022-07-30T05:43:00,42.805,6.029,CST-1368DR,4636,5004,11496,01.225,551
2022-07-30T05:46:02,42.805,6.029,CST-1368DR,4636,5013,11518,01.218,551
2022-07-30T05:49:03,42.805,6.029,CST-1368DR,4636,5005,11499,01.224,551
2022-07-30T05:52:05,42.805,6.029,CST-1368DR,4636,5004,11496,01.225,551
2022-07-30T05:55:07,42.805,6.029,CST-1368DR,4636,4999,11485,01.229,551
2022-07-30T05:58:08,42.805,6.029,CST-1368DR,4636,5004,11496,01.225,551
2022-07-30T06:01:10,42.805,6.029,CST-1368DR,4636,4999,11485,01.229,551
2022-07-30T06:04:11,42.805,6.029,CST-1368DR,4636,5002,11492,01.227,551
2022-07-30T06:07:13,42.805,6.029,CST-1368DR,4636,5004,11496,01.225,551
2022-07-30T06:10:14,42.805,6.029,CST-1368DR,4636,4999,11484,01.229,551
2022-07-30T06:13:16,42.805,6.029,CST-1368DR,4636,5002,11491,01.227,551
2022-07-30T06:16:18,42.805,6.029,CST-1368DR,4636,5003,11494,01.226,551
2022-07-30T06:19:19,42.805,6.029,CST-1368DR,4636,5005,11499,01.224,551
2022-07-30T06:22:21,42.805,6.029,CST-1368DR,4636,5006,11500,01.224,551
2022-07-30T06:25:22,42.805,6.029,CST-1368DR,4636,5003,11494,01.226,551
2022-07-30T06:28:24,42.805,6.029,CST-1368DR,4636,5004,11495,01.226,551
2022-07-30T06:31:26,42.805,6.029,CST-1368DR,4636,5001,11489,01.228,551
2022-07-30T06:34:27,42.805,6.029,CST-1368DR,4636,5003,11495,01.226,551
2022-07-30T06:37:29,42.805,6.029,CST-1368DR,4636,4998,11481,01.230,551
2022-07-30T06:40:30,42.805,6.029,CST-1368DR,4636,5002,11491,01.227,551
2022-07-30T06:43:32,42.805,6.029,CST-1368DR,4636,5002,11492,01.227,551
2022-07-30T06:46:33,42.805,6.029,CST-1368DR,4636,4999,11485,01.229,551
2022-07-30T06:49:35,42.805,6.029,CST-1368DR,4636,5000,11488,01.228,551
2022-07-30T06:52:37,42.805,6.029,CST-1368DR,4636,5005,11499,01.224,551
2022-07-30T06:55:38,42.805,6.029,CST-1368DR,4636,5003,11493,01.226,551
2022-07-30T06:58:40,42.805,6.029,CST-1368DR,4636,5004,11497,01.225,551
2022-07-30T07:01:41,42.805,6.029,CST-1368DR,4636,5001,11489,01.228,551
2022-07-30T07:04:43,42.805,6.029,CST-1368DR,4636,5000,11488,01.228,551
2022-07-30T07:07:45,42.805,6.029,CST-1368DR,4636,5009,11507,01.221,551
2022-07-30T07:10:46,42.805,6.029,CST-1368DR,4636,5007,11503,01.223,551
2022-07-30T07:13:48,42.805,6.029,CST-1368DR,4636,5003,11493,01.226,551
2022-07-30T07:16:49,42.805,6.029,CST-1368DR,4636,5004,11496,01.225,551
2022-07-30T07:19:51,42.805,6.029,CST-1368DR,4636,5004,11495,01.226,551
2022-07-30T07:22:52,42.805,6.029,CST-1368DR,4636,4999,11485,01.229,551
2022-07-30T07:25:54,42.805,6.029,CST-1368DR,4636,5006,11500,01.224,551
2022-07-30T07:28:56,42.805,6.029,CST-1368DR,4636,5004,11496,01.225,551
2022-07-30T07:31:57,42.805,6.029,CST-1368DR,4636,5005,11499,01.224,551
2022-07-30T07:34:59,42.805,6.029,CST-1368DR,4636,5005,11499,01.224,551
2022-07-30T07:38:00,42.805,6.029,CST-1368DR,4636,5003,11494,01.226,551
2022-07-30T07:41:02,42.805,6.029,CST-1368DR,4636,5001,11489,01.228,551
2022-07-30T07:44:03,42.805,6.029,CST-1368DR,4636,5004,11496,01.225,551
2022-07-30T07:47:05,42.805,6.029,CST-1368DR,4636,5000,11488,01.228,551
2022-07-30T07:50:07,42.805,6.029,CST-1368DR,4636,5005,11498,01.224,551
2022-07-30T07:53:08,42.805,6.029,CST-1368DR,4636,5006,11500,01.224,551
2022-07-30T07:56:10,42.805,6.029,CST-1368DR,4636,5002,11492,01.227,551
2022-07-30T07:59:11,42.805,6.029,CST-1368DR,4636,5007,11503,01.223,551
2022-07-30T08:02:13,42.805,6.029,CST-1368DR,4636,5004,11497,01.225,551
2022-07-30T08:05:15,42.805,6.029,CST-1368DR,4636,5006,11500,01.224,551
2022-07-30T08:08:16,42.805,6.029,CST-1368DR,4636,5007,11504,01.222,551
2022-07-30T08:11:18,42.805,6.029,CST-1368DR,4636,4999,11484,01.229,551
2022-07-30T08:14:19,42.805,6.029,CST-1368DR,4636,4999,11484,01.229,551
2022-07-30T08:17:21,42.805,6.029,CST-1368DR,4636,4997,11481,01.230,551
2022-07-30T08:20:22,42.805,6.029,CST-1368DR,4636,5004,11497,01.225,551
2022-07-30T08:23:24,42.805,6.029,CST-1368DR,4636,5000,11487,01.228,551
2022-07-30T08:26:26,42.805,6.029,CST-1368DR,4636,5003,11493,01.226,551
2022-07-30T08:29:27,42.805,6.029,CST-1368DR,4636,5001,11488,01.228,551
2022-07-30T08:32:29,42.805,6.029,CST-1368DR,4636,5003,11494,01.226,551
2022-07-30T08:35:30,42.805,6.029,CST-1368DR,4636,5004,11496,01.225,551
2022-07-30T08:38:32,42.805,6.029,CST-1368DR,4636,5002,11491,01.227,551
2022-07-30T08:41:33,42.805,6.029,CST-1368DR,4636,5003,11494,01.226,551
2022-07-30T08:44:35,42.805,6.029,CST-1368DR,4636,5000,11486,01.229,551
2022-07-30T08:47:37,42.805,6.029,CST-1368DR,4636,5002,11492,01.227,551
2022-07-30T08:50:38,42.805,6.029,CST-1368DR,4637,5122,11766,01.132,551
2022-07-30T08:53:40,42.805,6.029,CST-1368DR,4637,5124,11768,01.132,551
2022-07-30T08:56:41,42.805,6.029,CST-1368DR,4637,5122,11764,01.133,551
2022-07-30T08:59:43,42.805,6.029,CST-1368DR,4637,5124,11768,01.132,551
2022-07-30T09:02:45,42.805,6.029,CST-1368DR,4637,5123,11767,01.132,551
2022-07-30T09:05:46,42.805,6.029,CST-1368DR,4637,5125,11772,01.130,551
2022-07-30T09:08:48,42.805,6.029,CST-1368DR,4637,5125,11771,01.131,551
2022-07-30T09:11:49,42.805,6.029,CST-1368DR,4637,5125,11772,01.130,551
2022-07-30T09:14:51,42.805,6.029,CST-1368DR,4637,5125,11771,01.131,551
2022-07-30T09:17:52,42.805,6.029,CST-1368DR,4637,5125,11771,01.131,551
2022-07-30T09:20:54,42.805,6.029,CST-1368DR,4637,5125,11772,01.130,551
2022-07-30T09:23:56,42.805,6.029,CST-1368DR,4637,5126,11773,01.130,551
2022-07-30T09:26:57,42.805,6.029,CST-1368DR,4637,5126,11774,01.130,551
2022-07-30T09:29:59,42.805,6.029,CST-1368DR,4637,5126,11775,01.129,551
2022-07-30T09:33:00,42.805,6.029,CST-1368DR,4637,5127,11775,01.129,551
2022-07-30T09:36:02,42.805,6.029,CST-1368DR,4637,5127,11776,01.129,551
2022-07-30T09:39:04,42.805,6.029,CST-1368DR,4637,5125,11771,01.131,551
2022-07-30T09:42:05,42.805,6.029,CST-1368DR,4637,5127,11775,01.129,551
2022-07-30T09:45:07,42.805,6.029,CST-1368DR,4637,5126,11774,01.130,551
2022-07-30T09:48:08,42.805,6.029,CST-1368DR,4637,5127,11775,01.129,551
2022-07-30T09:51:10,42.805,6.029,CST-1368DR,4637,5087,11685,01.160,551
2022-07-30T09:54:11,42.805,6.029,CST-1368DR,4637,5128,11778,01.128,551
2022-07-30T09:57:13,42.805,6.029,CST-1368DR,4637,5126,11775,01.129,551
2022-07-30T10:00:15,42.805,6.029,CST-1368DR,4637,5126,11775,01.129,551
2022-07-30T10:03:16,42.805,6.029,CST-1368DR,4637,5127,11776,01.129,551
2022-07-30T10:06:18,42.805,6.029,CST-1368DR,4637,5127,11776,01.129,551
2022-07-30T10:09:19,42.805,6.029,CST-1368DR,4637,5128,11778,01.128,551
2022-07-30T10:12:21,42.805,6.029,CST-1368DR,4637,5127,11775,01.129,551
2022-07-30T10:15:22,42.805,6.029,CST-1368DR,4637,5125,11772,01.130,551
2022-07-30T10:18:24,42.805,6.029,CST-1368DR,4637,5126,11775,01.129,551
2022-07-30T10:21:26,42.805,6.029,CST-1368DR,4637,5127,11777,01.129,551
2022-07-30T10:24:27,42.805,6.029,CST-1368DR,4637,5128,11779,01.128,551
2022-07-30T10:27:29,42.805,6.029,CST-1368DR,4637,5128,11779,01.128,551
2022-07-30T10:30:30,42.805,6.029,CST-1368DR,4637,5125,11772,01.130,551
2022-07-30T10:33:32,42.805,6.029,CST-1368DR,4637,5124,11770,01.131,551
2022-07-30T10:36:34,42.805,6.029,CST-1368DR,4637,5128,11778,01.128,551
2022-07-30T10:39:35,42.805,6.029,CST-1368DR,4637,5128,11778,01.128,551
2022-07-30T10:42:37,42.805,6.029,CST-1368DR,4637,5129,11780,01.128,551
2022-07-30T10:45:38,42.805,6.029,CST-1368DR,4637,5130,11782,01.127,551
2022-07-30T10:48:40,42.805,6.029,CST-1368DR,4637,5124,11769,01.131,551
2022-07-30T10:51:41,42.805,6.029,CST-1368DR,4637,5124,11770,01.131,551
2022-07-30T10:54:43,42.805,6.029,CST-1368DR,4637,5125,11771,01.131,551
2022-07-30T10:57:45,42.805,6.029,CST-1368DR,4637,5125,11771,01.131,551
2022-07-30T11:00:46,42.805,6.029,CST-1368DR,4637,5122,11766,01.132,551
2022-07-30T11:03:48,42.805,6.029,CST-1368DR,4637,5124,11768,01.132,551
2022-07-30T11:06:49,42.805,6.029,CST-1368DR,4637,5124,11769,01.131,551
2022-07-30T11:09:51,42.805,6.029,CST-1368DR,4637,5124,11768,01.132,551
2022-07-30T11:12:52,42.805,6.029,CST-1368DR,4637,5123,11767,01.132,551
2022-07-30T11:15:54,42.805,6.029,CST-1368DR,4637,5123,11768,01.132,551
2022-07-30T11:18:56,42.805,6.029,CST-1368DR,4637,5121,11763,01.133,551
2022-07-30T11:21:57,42.805,6.029,CST-1368DR,4637,5122,11764,01.133,551
2022-07-30T11:24:59,42.805,6.029,CST-1368DR,4637,5123,11767,01.132,551
2022-07-30T11:28:00,42.805,6.029,CST-1368DR,4637,5119,11758,01.135,551
2022-07-30T11:31:02,42.805,6.029,CST-1368DR,4637,5123,11767,01.132,551
2022-07-30T11:34:04,42.805,6.029,CST-1368DR,4637,5121,11762,01.134,551
2022-07-30T11:37:05,42.805,6.029,CST-1368DR,4637,5123,11767,01.132,551
2022-07-30T11:40:07,42.805,6.029,CST-1368DR,4637,5122,11764,01.133,551
2022-07-30T11:43:08,42.805,6.029,CST-1368DR,4637,5121,11763,01.133,551
2022-07-30T11:46:10,42.805,6.029,CST-1368DR,4637,5122,11766,01.132,551
2022-07-30T11:49:11,42.805,6.029,CST-1368DR,4637,5122,11766,01.132,551
2022-07-30T11:52:13,42.805,6.029,CST-1368DR,4637,5121,11763,01.133,551
2022-07-30T11:55:15,42.805,6.029,CST-1368DR,4637,5121,11763,01.133,551
2022-07-30T11:58:16,42.805,6.029,CST-1368DR,4637,5121,11762,01.134,551
2022-07-30T12:01:18,42.805,6.029,CST-1368DR,4637,5121,11762,01.134,551
2022-07-30T12:04:19,42.805,6.029,CST-1368DR,4637,5121,11762,01.134,551
2022-07-30T12:07:21,42.805,6.029,CST-1368DR,4637,5121,11763,01.133,551
2022-07-30T12:10:23,42.805,6.029,CST-1368DR,4637,5120,11761,01.134,551
2022-07-30T12:13:24,42.805,6.029,CST-1368DR,4637,5122,11765,01.133,551
2022-07-30T12:16:26,42.805,6.029,CST-1368DR,4637,5121,11763,01.133,551
2022-07-30T12:19:27,42.805,6.029,CST-1368DR,4637,5122,11764,01.133,551
2022-07-30T12:22:29,42.805,6.029,CST-1368DR,4637,5123,11767,01.132,551
2022-07-30T12:25:30,42.805,6.029,CST-1368DR,4637,5121,11763,01.133,551
2022-07-30T12:28:32,42.805,6.029,CST-1368DR,4637,5120,11760,01.134,551
2022-07-30T12:31:34,42.805,6.029,CST-1368DR,4637,5118,11755,01.136,551
2022-07-30T12:34:35,42.805,6.029,CST-1368DR,4637,5121,11762,01.134,551
2022-07-30T12:37:37,42.805,6.029,CST-1368DR,4637,5123,11768,01.132,551
2022-07-30T12:40:38,42.805,6.029,CST-1368DR,4637,5121,11762,01.134,551
2022-07-30T12:43:40,42.805,6.029,CST-1368DR,4637,5110,11737,01.142,551
2022-07-30T12:46:41,42.805,6.029,CST-1368DR,4637,5111,11740,01.141,551
2022-07-30T12:49:43,42.805,6.029,CST-1368DR,4637,5101,11716,01.149,551
2022-07-30T12:52:45,42.805,6.029,CST-1368DR,4637,5095,11702,01.154,551
2022-07-30T12:55:46,42.805,6.029,CST-1368DR,4637,5087,11684,01.160,551
2022-07-30T12:58:48,42.805,6.029,CST-1368DR,4637,5077,11662,01.168,551
2022-07-30T13:01:49,42.805,6.029,CST-1368DR,4637,5093,11697,01.156,551
2022-07-30T13:04:51,42.805,6.029,CST-1368DR,4637,5092,11695,01.157,551
2022-07-30T13:07:53,42.805,6.029,CST-1368DR,4637,5086,11682,01.161,551
2022-07-30T13:10:54,42.805,6.029,CST-1368DR,4637,5071,11648,01.173,551
2022-07-30T13:13:56,42.805,6.029,CST-1368DR,4636,5063,11632,01.178,551
2022-07-30T13:16:57,42.805,6.029,CST-1368DR,4636,5064,11634,01.177,551
2022-07-30T13:19:59,42.805,6.029,CST-1368DR,4637,5127,11775,01.129,551
2022-07-30T13:23:00,42.805,6.029,CST-1368DR,4637,5126,11773,01.130,551
2022-07-30T13:26:02,42.805,6.029,CST-1368DR,4637,5126,11774,01.130,551
2022-07-30T13:29:04,42.805,6.029,CST-1368DR,4637,5126,11774,01.130,551
2022-07-30T13:32:05,42.805,6.029,CST-1368DR,4637,5125,11772,01.130,551
2022-07-30T13:35:07,42.805,6.029,CST-1368DR,4637,5126,11774,01.130,551
2022-07-30T13:38:08,42.805,6.029,CST-1368DR,4637,5127,11776,01.129,551
2022-07-30T13:41:10,42.805,6.029,CST-1368DR,4637,5126,11775,01.129,551
2022-07-30T13:44:11,42.805,6.029,CST-1368DR,4637,5126,11774,01.130,551
2022-07-30T13:47:13,42.805,6.029,CST-1368DR,4637,5126,11775,01.129,551
2022-07-30T13:50:15,42.805,6.029,CST-1368DR,4637,5127,11776,01.129,551
2022-07-30T13:53:16,42.805,6.029,CST-1368DR,4637,5126,11774,01.130,551
2022-07-30T13:56:18,42.805,6.029,CST-1368DR,4637,5125,11772,01.130,551
2022-07-30T13:59:19,42.805,6.029,CST-1368DR,4637,5127,11775,01.129,551
2022-07-30T14:02:21,42.805,6.029,CST-1368DR,4637,5127,11776,01.129,551
2022-07-30T14:05:23,42.805,6.029,CST-1368DR,4637,5126,11774,01.130,551
2022-07-30T14:08:24,42.805,6.029,CST-1368DR,4637,5126,11774,01.130,551
2022-07-30T14:11:26,42.805,6.029,CST-1368DR,4637,5127,11775,01.129,551
2022-07-30T14:14:27,42.805,6.029,CST-1368DR,4637,5126,11775,01.129,551
2022-07-30T14:17:29,42.805,6.029,CST-1368DR,4637,5126,11774,01.130,551
2022-07-30T14:20:30,42.805,6.029,CST-1368DR,4637,5125,11771,01.131,551
2022-07-30T14:23:32,42.805,6.029,CST-1368DR,4637,5125,11772,01.130,551
2022-07-30T14:26:34,42.805,6.029,CST-1368DR,4637,5127,11777,01.129,551
2022-07-30T14:29:35,42.805,6.029,CST-1368DR,4637,5126,11775,01.129,551
2022-07-30T14:32:37,42.805,6.029,CST-1368DR,4637,5126,11775,01.129,551
2022-07-30T14:35:38,42.805,6.029,CST-1368DR,4637,5126,11775,01.129,551
2022-07-30T14:38:40,42.805,6.029,CST-1368DR,4637,5126,11775,01.129,551
2022-07-30T14:41:41,42.805,6.029,CST-1368DR,4637,5126,11773,01.130,551
2022-07-30T14:44:43,42.805,6.029,CST-1368DR,4637,5127,11775,01.129,551
2022-07-30T14:47:45,42.805,6.029,CST-1368DR,4637,5122,11764,01.133,551
2022-07-30T14:50:46,42.805,6.029,CST-1368DR,4637,5126,11775,01.129,551
2022-07-30T14:53:48,42.805,6.029,CST-1368DR,4637,5127,11777,01.129,551
2022-07-30T14:56:49,42.805,6.029,CST-1368DR,4637,5126,11775,01.129,551
2022-07-30T14:59:51,42.805,6.029,CST-1368DR,4637,5127,11776,01.129,551
2022-07-30T15:02:53,42.805,6.029,CST-1368DR,4637,5127,11776,01.129,551
2022-07-30T15:05:54,42.805,6.029,CST-1368DR,4637,5127,11776,01.129,551
2022-07-30T15:08:56,42.805,6.029,CST-1368DR,4637,5126,11774,01.130,551
2022-07-30T15:11:57,42.805,6.029,CST-1368DR,4637,5126,11774,01.130,551
2022-07-30T15:14:59,42.805,6.029,CST-1368DR,4637,5127,11776,01.129,551
2022-07-30T15:18:00,42.805,6.029,CST-1368DR,4637,5127,11776,01.129,551
2022-07-30T15:21:02,42.805,6.029,CST-1368DR,4637,5126,11775,01.129,551
2022-07-30T15:24:04,42.805,6.029,CST-1368DR,4637,5128,11778,01.128,551
2022-07-30T15:27:05,42.805,6.029,CST-1368DR,4637,5128,11779,01.128,551
2022-07-30T15:30:07,42.805,6.029,CST-1368DR,4637,5128,11779,01.128,551
2022-07-30T15:33:08,42.805,6.029,CST-1368DR,4637,5125,11772,01.130,551
2022-07-30T15:36:10,42.805,6.029,CST-1368DR,4637,5127,11777,01.129,551
2022-07-30T15:39:11,42.805,6.029,CST-1368DR,4637,5127,11776,01.129,551
2022-07-30T15:42:13,42.805,6.029,CST-1368DR,4637,5124,11768,01.132,551
2022-07-30T15:45:15,42.805,6.029,CST-1368DR,4637,5119,11757,01.135,551
2022-07-30T15:48:16,42.805,6.029,CST-1368DR,4637,5120,11761,01.134,551
2022-07-30T15:51:18,42.805,6.029,CST-1368DR,4637,5127,11775,01.129,551
2022-07-30T15:54:19,42.805,6.029,CST-1368DR,4637,5131,11785,01.126,551
2022-07-30T15:57:21,42.805,6.029,CST-1368DR,4637,5130,11783,01.127,551
2022-07-30T16:00:23,42.805,6.029,CST-1368DR,4637,5128,11779,01.128,551
2022-07-30T16:03:24,42.805,6.029,CST-1368DR,4637,5128,11779,01.128,551
2022-07-30T16:06:26,42.805,6.029,CST-1368DR,4637,5129,11780,01.128,551
2022-07-30T16:09:27,42.805,6.029,CST-1368DR,4637,5130,11783,01.127,551
2022-07-30T16:12:29,42.805,6.029,CST-1368DR,4637,5127,11777,01.129,551
2022-07-30T16:15:30,42.805,6.029,CST-1368DR,4637,5131,11786,01.126,551
2022-07-30T16:18:32,42.805,6.029,CST-1368DR,4637,5129,11780,01.128,550
2022-07-30T16:21:34,42.805,6.029,CST-1368DR,4637,5129,11780,01.128,551
2022-07-30T16:24:35,42.805,6.029,CST-1368DR,4637,5130,11782,01.127,551
2022-07-30T16:27:37,42.805,6.029,CST-1368DR,4637,5134,11793,01.123,551
2022-07-30T16:30:38,42.805,6.029,CST-1368DR,4637,5135,11794,01.123,551
2022-07-30T16:33:40,42.805,6.029,CST-1368DR,4637,5134,11792,01.123,551
2022-07-30T16:36:41,42.805,6.029,CST-1368DR,4637,5133,11790,01.124,551